Time,TemperatureF,DewpointF,PressureIn,WindDirection,WindDirectionDegrees,WindSpeedMPH,WindSpeedGustMPH,Humidity,HourlyPrecipIn,Conditions,Clouds,dailyrainin,SoftwareType,DateUTC
2013-07-14 00:01:00,72.7,62.3,30.18,West,280,2.7,5.8,70,0.04,,---,0.08,VWS V14.01,2013-07-14 04:01:00,
2013-07-14 00:02:00,72.7,62.3,30.18,NW,312,0.0,4.5,70,0.04,,---,0.00,VWS V14.01,2013-07-14 04:02:00,
2013-07-14 00:07:00,73.4,63.0,30.18,WNW,282,5.8,5.8,70,0.04,,---,0.00,VWS V14.01,2013-07-14 04:07:00,
2013-07-14 00:12:00,73.4,62.2,30.18,WNW,303,4.0,4.0,68,0.04,,---,0.00,VWS V14.01,2013-07-14 04:12:00,
2013-07-14 00:17:00,73.2,61.2,30.18,SW,220,3.1,3.1,66,0.04,,---,0.00,VWS V14.01,2013-07-14 04:17:00,
2013-07-14 00:22:00,72.7,59.4,30.18,NW,312,6.3,7.2,63,0.04,,---,0.00,VWS V14.01,2013-07-14 04:22:00,
2013-07-14 00:27:00,72.1,58.4,30.18,ENE,76,0.0,0.0,62,0.04,,---,0.00,VWS V14.01,2013-07-14 04:27:00,
2013-07-14 00:32:00,71.6,57.9,30.18,NE,42,0.0,0.0,62,0.04,,---,0.00,VWS V14.01,2013-07-14 04:32:00,
2013-07-14 00:37:00,71.4,57.7,30.18,North,353,0.0,0.0,62,0.04,,---,0.00,VWS V14.01,2013-07-14 04:37:00,
2013-07-14 00:42:00,71.2,57.6,30.18,West,275,2.7,2.7,62,0.04,,---,0.00,VWS V14.01,2013-07-14 04:42:00,
2013-07-14 00:47:00,71.2,58.0,30.18,West,266,0.0,2.2,63,0.04,,---,0.00,VWS V14.01,2013-07-14 04:47:00,
2013-07-14 00:52:00,71.1,57.8,30.18,NNE,30,0.0,2.2,63,0.00,,---,0.00,VWS V14.01,2013-07-14 04:52:00,
2013-07-14 00:58:00,70.9,57.7,30.18,SSE,155,0.0,2.7,63,0.00,,---,0.00,VWS V14.01,2013-07-14 04:58:00,
2013-07-14 09:10:00,70.5,48.2,30.27,SE,126,0.0,0.0,45,0.00,,---,0.00,VWS V14.01,2013-07-14 13:10:00,
2013-07-14 09:15:00,70.5,48.8,30.27,ESE,122,0.0,0.0,46,0.00,,---,0.00,VWS V14.01,2013-07-14 13:15:00,
2013-07-14 09:20:00,70.5,48.8,30.27,SW,216,3.6,3.6,46,0.00,,---,0.00,VWS V14.01,2013-07-14 13:20:00,
2013-07-14 09:25:00,70.7,48.9,30.27,SW,225,0.0,0.0,46,0.00,,---,0.00,VWS V14.01,2013-07-14 13:25:00,
2013-07-14 09:30:00,70.5,48.8,30.27,ESE,119,0.0,2.2,46,0.00,,---,0.00,VWS V14.01,2013-07-14 13:30:00,
2013-07-14 09:35:00,70.7,49.5,30.27,ESE,119,0.0,0.0,47,0.00,,---,0.00,VWS V14.01,2013-07-14 13:35:00,
2013-07-14 09:40:00,70.9,49.7,30.27,North,3,0.0,2.7,47,0.00,,---,0.00,VWS V14.01,2013-07-14 13:40:00,
2013-07-14 09:45:00,71.1,49.8,30.27,SW,230,0.0,2.7,47,0.00,,---,0.00,VWS V14.01,2013-07-14 13:45:00,
2013-07-14 09:50:00,70.9,49.7,30.27,NE,36,2.2,3.1,47,0.00,,---,0.00,VWS V14.01,2013-07-14 13:50:00,
2013-07-14 09:55:00,70.9,49.1,30.27,North,357,0.0,0.0,46,0.00,,---,0.00,VWS V14.01,2013-07-14 13:55:00,
2013-07-14 10:00:00,70.9,47.3,30.27,NW,315,2.2,2.2,43,0.00,,---,0.00,VWS V14.01,2013-07-14 14:00:00,
2013-07-14 10:05:00,70.9,46.7,30.27,WSW,244,2.7,2.7,42,0.00,,---,0.00,VWS V14.01,2013-07-14 14:05:00,
2013-07-14 10:10:00,70.9,46.0,30.27,WSW,253,6.7,6.7,41,0.00,,---,0.00,VWS V14.01,2013-07-14 14:10:00,
2013-07-14 10:15:00,70.9,46.0,30.30,North,357,0.0,2.2,41,0.00,,---,0.00,VWS V14.01,2013-07-14 14:15:00,
2013-07-14 10:20:00,71.2,47.0,30.30,NE,38,0.0,0.0,42,0.00,,---,0.00,VWS V14.01,2013-07-14 14:20:00,
2013-07-14 10:25:00,71.4,45.9,30.30,WSW,239,5.4,5.4,40,0.00,,---,0.00,VWS V14.01,2013-07-14 14:25:00,
2013-07-14 10:30:00,71.4,45.2,30.30,West,278,3.6,4.0,39,0.00,,---,0.00,VWS V14.01,2013-07-14 14:30:00,
2013-07-14 10:35:00,71.6,44.7,30.30,North,6,2.7,2.7,38,0.00,,---,0.00,VWS V14.01,2013-07-14 14:35:00,
2013-07-14 10:40:00,71.8,44.8,30.30,North,0,3.1,4.0,38,0.00,,---,0.00,VWS V14.01,2013-07-14 14:40:00,
2013-07-14 10:45:00,72.0,45.0,30.30,NW,326,2.7,2.7,38,0.00,,---,0.00,VWS V14.01,2013-07-14 14:45:00,
2013-07-14 10:50:00,72.1,44.5,30.30,NW,323,4.9,4.9,37,0.00,,---,0.00,VWS V14.01,2013-07-14 14:50:00,
2013-07-14 10:55:00,72.3,43.2,30.30,NW,313,3.6,4.9,35,0.00,,---,0.00,VWS V14.01,2013-07-14 14:55:00,
2013-07-14 11:00:00,72.9,44.4,30.27,WSW,241,3.6,3.6,36,0.00,,---,0.00,VWS V14.01,2013-07-14 15:00:00,
2013-07-14 11:05:00,73.6,42.7,30.27,WNW,291,6.3,11.9,33,0.00,,---,0.00,VWS V14.01,2013-07-14 15:05:00,
2013-07-14 11:10:00,73.9,41.4,30.27,WSW,249,8.7,9.2,31,0.00,,---,0.00,VWS V14.01,2013-07-14 15:10:00,
2013-07-14 11:15:00,74.1,42.4,30.30,WNW,299,8.3,12.3,32,0.00,,---,0.00,VWS V14.01,2013-07-14 15:15:00,
2013-07-14 11:20:00,74.3,42.6,30.30,WNW,290,8.1,8.1,32,0.00,,---,0.00,VWS V14.01,2013-07-14 15:20:00,
2013-07-14 11:25:00,74.1,42.4,30.30,WNW,286,4.0,6.3,32,0.00,,---,0.00,VWS V14.01,2013-07-14 15:25:00,
2013-07-14 11:30:00,74.3,41.7,30.30,WNW,302,5.8,7.6,31,0.00,,---,0.00,VWS V14.01,2013-07-14 15:30:00,
2013-07-14 11:36:00,74.5,41.9,30.30,West,267,7.6,8.7,31,0.00,,---,0.00,VWS V14.01,2013-07-14 15:36:00,
2013-07-14 11:41:00,74.1,41.6,30.30,West,266,5.4,8.7,31,0.00,,---,0.00,VWS V14.01,2013-07-14 15:41:00,
2013-07-14 11:46:00,73.4,41.0,30.27,WNW,288,5.4,5.4,31,0.00,,---,0.00,VWS V14.01,2013-07-14 15:46:00,
2013-07-14 11:51:00,73.2,42.4,30.27,West,263,4.0,4.0,33,0.00,,---,0.00,VWS V14.01,2013-07-14 15:51:00,
2013-07-14 11:56:00,73.0,42.3,30.27,WNW,292,5.8,6.3,33,0.00,,---,0.00,VWS V14.01,2013-07-14 15:56:00,
2013-07-14 12:01:00,73.4,43.3,30.30,West,262,2.7,4.9,34,0.00,,---,0.00,VWS V14.01,2013-07-14 16:01:00,
2013-07-14 12:06:00,73.8,42.9,30.30,NW,304,2.7,7.6,33,0.00,,---,0.00,VWS V14.01,2013-07-14 16:06:00,
2013-07-14 12:11:00,74.7,42.0,30.30,NW,313,3.6,10.5,31,0.00,,---,0.00,VWS V14.01,2013-07-14 16:11:00,
2013-07-14 12:16:00,75.4,42.7,30.30,WSW,258,2.7,6.3,31,0.00,,---,0.00,VWS V14.01,2013-07-14 16:16:00,
2013-07-14 12:21:00,75.9,43.1,30.30,NNW,327,2.7,2.7,31,0.00,,---,0.00,VWS V14.01,2013-07-14 16:21:00,
2013-07-14 12:26:00,76.6,40.2,30.30,West,263,7.6,7.6,27,0.00,,---,0.00,VWS V14.01,2013-07-14 16:26:00,
2013-07-14 12:31:00,76.6,41.1,30.30,SSW,195,2.7,3.1,28,0.00,,---,0.00,VWS V14.01,2013-07-14 16:31:00,
2013-07-14 12:36:00,76.6,39.2,30.30,SSW,206,6.3,6.3,26,0.00,,---,0.00,VWS V14.01,2013-07-14 16:36:00,
2013-07-14 12:41:00,77.0,42.3,30.30,West,280,10.5,10.5,29,0.00,,---,0.00,VWS V14.01,2013-07-14 16:41:00,
2013-07-14 12:46:00,77.0,37.5,30.30,WNW,291,3.6,5.4,24,0.00,,---,0.00,VWS V14.01,2013-07-14 16:46:00,
2013-07-14 12:51:00,77.0,40.5,30.30,WSW,256,7.6,7.6,27,0.00,,---,0.00,VWS V14.01,2013-07-14 16:51:00,
2013-07-14 12:56:00,77.0,37.5,30.30,NNW,330,5.4,5.8,24,0.00,,---,0.00,VWS V14.01,2013-07-14 16:56:00,
2013-07-14 13:01:00,77.5,37.9,30.30,WNW,294,2.7,4.0,24,0.00,,---,0.00,VWS V14.01,2013-07-14 17:01:00,
2013-07-14 13:06:00,78.1,39.4,30.30,NW,315,4.0,4.0,25,0.00,,---,0.00,VWS V14.01,2013-07-14 17:06:00,
2013-07-14 13:11:00,78.1,36.2,30.30,WSW,248,5.4,5.8,22,0.00,,---,0.00,VWS V14.01,2013-07-14 17:11:00,
2013-07-14 13:16:00,78.3,37.5,30.27,West,271,5.4,6.3,23,0.00,,---,0.00,VWS V14.01,2013-07-14 17:16:00,
2013-07-14 13:21:00,78.1,37.3,30.27,NW,313,7.6,7.6,23,0.00,,---,0.00,VWS V14.01,2013-07-14 17:21:00,
2013-07-14 13:26:00,78.1,36.2,30.27,WNW,285,8.1,8.1,22,0.00,,---,0.00,VWS V14.01,2013-07-14 17:26:00,
2013-07-14 13:31:00,77.9,38.2,30.27,SW,217,5.8,7.6,24,0.00,,---,0.00,VWS V14.01,2013-07-14 17:31:00,
2013-07-14 13:36:00,77.9,39.3,30.27,North,0,2.7,2.7,25,0.00,,---,0.00,VWS V14.01,2013-07-14 17:36:00,
2013-07-14 13:41:00,78.3,37.5,30.27,WSW,254,8.7,8.7,23,0.00,,---,0.00,VWS V14.01,2013-07-14 17:41:00,
2013-07-14 13:47:00,78.6,39.9,30.27,WSW,238,3.6,4.0,25,0.00,,---,0.00,VWS V14.01,2013-07-14 17:47:00,
2013-07-14 13:52:00,79.0,35.8,30.27,WNW,293,8.1,8.1,21,0.00,,---,0.00,VWS V14.01,2013-07-14 17:52:00,
2013-07-14 13:57:00,79.0,35.8,30.27,North,5,2.7,2.7,21,0.00,,---,0.00,VWS V14.01,2013-07-14 17:57:00,
2013-07-14 14:02:00,79.3,36.0,30.27,WSW,255,5.8,8.3,21,0.00,,---,0.00,VWS V14.01,2013-07-14 18:02:00,
2013-07-14 14:07:00,78.8,35.6,30.27,NE,51,2.7,3.6,21,0.00,,---,0.00,VWS V14.01,2013-07-14 18:07:00,
2013-07-14 14:12:00,79.3,37.2,30.27,NNW,331,2.7,6.3,22,0.00,,---,0.00,VWS V14.01,2013-07-14 18:12:00,
2013-07-14 14:17:00,79.7,36.3,30.27,NW,305,2.7,4.0,21,0.00,,---,0.00,VWS V14.01,2013-07-14 18:17:00,
2013-07-14 14:22:00,79.2,35.9,30.27,West,277,5.8,5.8,21,0.00,,---,0.00,VWS V14.01,2013-07-14 18:22:00,
2013-07-14 14:27:00,78.8,36.8,30.27,West,262,3.6,4.0,22,0.00,,---,0.00,VWS V14.01,2013-07-14 18:27:00,
2013-07-14 14:32:00,79.2,35.9,30.27,West,272,7.6,7.6,21,0.00,,---,0.00,VWS V14.01,2013-07-14 18:32:00,
2013-07-14 14:37:00,78.6,35.5,30.27,West,262,3.6,4.9,21,0.00,,---,0.00,VWS V14.01,2013-07-14 18:37:00,
2013-07-14 14:42:00,78.6,37.8,30.27,WNW,289,3.6,5.4,23,0.00,,---,0.00,VWS V14.01,2013-07-14 18:42:00,
2013-07-14 14:47:00,79.0,35.8,30.27,West,263,6.3,6.3,21,0.00,,---,0.00,VWS V14.01,2013-07-14 18:47:00,
2013-07-14 14:52:00,78.4,35.3,30.27,WNW,290,3.6,5.8,21,0.00,,---,0.00,VWS V14.01,2013-07-14 18:52:00,
2013-07-14 14:57:00,78.1,35.0,30.27,WSW,257,5.8,12.3,21,0.00,,---,0.00,VWS V14.01,2013-07-14 18:57:00,
2013-07-14 15:02:00,78.3,38.5,30.27,West,270,3.1,3.6,24,0.00,,---,0.00,VWS V14.01,2013-07-14 19:02:00,
2013-07-14 15:07:00,78.8,35.6,30.27,WNW,297,3.1,5.4,21,0.00,,---,0.00,VWS V14.01,2013-07-14 19:07:00,
2013-07-14 15:12:00,79.5,36.2,30.27,WSW,251,2.2,6.3,21,0.00,,---,0.00,VWS V14.01,2013-07-14 19:12:00,
2013-07-14 15:13:00,79.7,36.3,30.27,WNW,295,3.6,5.4,21,0.00,,---,0.00,VWS V14.01,2013-07-14 19:13:00,
2013-07-14 15:18:00,79.3,36.0,30.27,WNW,284,0.0,0.0,21,0.00,,---,0.00,VWS V14.01,2013-07-14 19:18:00,
2013-07-14 15:23:00,78.8,35.6,30.27,WNW,302,5.4,5.4,21,0.00,,---,0.00,VWS V14.01,2013-07-14 19:23:00,
2013-07-14 15:29:00,77.7,34.7,30.27,West,275,4.0,4.0,21,0.00,,---,0.00,VWS V14.01,2013-07-14 19:29:00,
2013-07-14 15:34:00,77.9,37.2,30.27,WSW,245,3.1,3.1,23,0.00,,---,0.00,VWS V14.01,2013-07-14 19:34:00,
2013-07-14 15:39:00,79.2,37.1,30.27,NW,320,3.6,3.6,22,0.00,,---,0.00,VWS V14.01,2013-07-14 19:39:00,
2013-07-14 15:44:00,79.7,36.3,30.27,WNW,302,3.1,3.6,21,0.00,,---,0.00,VWS V14.01,2013-07-14 19:44:00,
2013-07-14 15:49:00,79.9,35.3,30.27,WSW,253,3.6,8.1,20,0.00,,---,0.00,VWS V14.01,2013-07-14 19:49:00,
2013-07-14 15:54:00,78.6,35.5,30.27,West,270,2.7,8.1,21,0.00,,---,0.00,VWS V14.01,2013-07-14 19:54:00,
2013-07-14 15:59:00,79.0,35.8,30.27,NW,306,3.1,3.6,21,0.00,,---,0.00,VWS V14.01,2013-07-14 19:59:00,
2013-07-14 16:04:00,79.7,35.1,30.24,SSE,167,2.7,6.3,20,0.00,,---,0.00,VWS V14.01,2013-07-14 20:04:00,
2013-07-14 16:09:00,80.4,37.0,30.24,NNE,12,3.6,5.4,21,0.00,,---,0.00,VWS V14.01,2013-07-14 20:09:00,
2013-07-14 16:14:00,80.4,35.7,30.24,NE,54,5.4,5.4,20,0.00,,---,0.00,VWS V14.01,2013-07-14 20:14:00,
2013-07-14 16:19:00,80.6,35.9,30.24,NE,42,2.2,3.6,20,0.00,,---,0.00,VWS V14.01,2013-07-14 20:19:00,
2013-07-14 16:24:00,81.5,36.6,30.24,WNW,297,4.0,4.0,20,0.00,,---,0.00,VWS V14.01,2013-07-14 20:24:00,
2013-07-14 16:29:00,82.0,37.0,30.27,West,261,6.3,6.3,20,0.00,,---,0.00,VWS V14.01,2013-07-14 20:29:00,
2013-07-14 16:34:00,82.0,35.8,30.27,West,259,0.0,3.1,19,0.00,,---,0.00,VWS V14.01,2013-07-14 20:34:00,
2013-07-14 16:39:00,80.8,36.0,30.27,NNE,32,3.6,3.6,20,0.00,,---,0.00,VWS V14.01,2013-07-14 20:39:00,
2013-07-14 16:44:00,80.2,36.8,30.27,NNE,26,3.1,3.1,21,0.00,,---,0.00,VWS V14.01,2013-07-14 20:44:00,
2013-07-14 16:49:00,80.4,35.7,30.27,West,269,2.7,2.7,20,0.00,,---,0.00,VWS V14.01,2013-07-14 20:49:00,
2013-07-14 16:54:00,80.1,35.4,30.27,WNW,289,4.0,4.0,20,0.00,,---,0.00,VWS V14.01,2013-07-14 20:54:00,
2013-07-14 16:59:00,79.5,35.0,30.27,ENE,78,3.6,4.9,20,0.00,,---,0.00,VWS V14.01,2013-07-14 20:59:00,
2013-07-14 17:04:00,79.2,35.9,30.27,West,274,4.0,4.0,21,0.00,,---,0.00,VWS V14.01,2013-07-14 21:04:00,
2013-07-14 17:09:00,78.4,35.3,30.27,West,261,3.1,3.1,21,0.00,,---,0.00,VWS V14.01,2013-07-14 21:09:00,
2013-07-14 17:15:00,78.6,36.6,30.27,NW,323,3.6,4.0,22,0.00,,---,0.00,VWS V14.01,2013-07-14 21:15:00,
2013-07-14 17:20:00,79.3,36.0,30.27,West,277,2.2,3.1,21,0.00,,---,0.00,VWS V14.01,2013-07-14 21:20:00,
2013-07-14 17:25:00,79.7,36.3,30.27,NW,310,3.6,3.6,21,0.00,,---,0.00,VWS V14.01,2013-07-14 21:25:00,
2013-07-14 17:30:00,80.2,35.6,30.24,NNW,344,0.0,3.1,20,0.00,,---,0.00,VWS V14.01,2013-07-14 21:30:00,
2013-07-14 17:35:00,80.8,36.0,30.24,East,80,0.0,0.0,20,0.00,,---,0.00,VWS V14.01,2013-07-14 21:35:00,
2013-07-14 17:40:00,81.5,37.8,30.24,West,272,4.0,4.0,21,0.00,,---,0.00,VWS V14.01,2013-07-14 21:40:00,
2013-07-14 17:45:00,81.7,36.8,30.24,NW,310,3.1,4.5,20,0.00,,---,0.00,VWS V14.01,2013-07-14 21:45:00,
2013-07-14 17:50:00,81.5,35.3,30.24,SSW,213,3.6,4.9,19,0.00,,---,0.00,VWS V14.01,2013-07-14 21:50:00,
2013-07-14 17:55:00,81.3,35.2,30.24,West,269,3.6,3.6,19,0.00,,---,0.00,VWS V14.01,2013-07-14 21:55:00,
2013-07-14 18:00:00,81.3,35.2,30.24,West,262,2.2,4.9,19,0.00,,---,0.00,VWS V14.01,2013-07-14 22:00:00,
2013-07-14 18:05:00,81.3,35.2,30.24,NW,305,2.2,4.0,19,0.00,,---,0.00,VWS V14.01,2013-07-14 22:05:00,
2013-07-14 18:10:00,81.0,32.1,30.24,WSW,254,4.0,5.8,17,0.00,,---,0.00,VWS V14.01,2013-07-14 22:10:00,
2013-07-14 18:15:00,80.6,34.6,30.24,WSW,251,6.3,6.3,19,0.00,,---,0.00,VWS V14.01,2013-07-14 22:15:00,
2013-07-14 18:20:00,80.4,35.7,30.24,West,261,2.2,5.4,20,0.00,,---,0.00,VWS V14.01,2013-07-14 22:20:00,
2013-07-14 18:25:00,80.2,35.6,30.24,West,272,2.7,4.5,20,0.00,,---,0.00,VWS V14.01,2013-07-14 22:25:00,
2013-07-14 18:30:00,80.1,35.4,30.24,WSW,252,0.0,0.0,20,0.00,,---,0.00,VWS V14.01,2013-07-14 22:30:00,
2013-07-14 18:35:00,80.4,35.7,30.24,West,277,0.0,0.0,20,0.00,,---,0.00,VWS V14.01,2013-07-14 22:35:00,
2013-07-14 18:40:00,81.1,36.3,30.24,West,277,0.0,0.0,20,0.00,,---,0.00,VWS V14.01,2013-07-14 22:40:00,
2013-07-14 18:45:00,81.1,36.3,30.24,WNW,289,0.0,0.0,20,0.00,,---,0.00,VWS V14.01,2013-07-14 22:45:00,
2013-07-14 18:50:00,81.0,36.2,30.24,NW,307,2.7,3.1,20,0.00,,---,0.00,VWS V14.01,2013-07-14 22:50:00,
2013-07-14 18:55:00,81.0,36.2,30.24,WSW,243,4.0,4.0,20,0.00,,---,0.00,VWS V14.01,2013-07-14 22:55:00,
2013-07-14 19:00:00,80.4,35.7,30.24,WNW,301,3.6,4.9,20,0.00,,---,0.00,VWS V14.01,2013-07-14 23:00:00,
2013-07-14 19:05:00,80.1,35.4,30.24,West,274,3.1,3.1,20,0.00,,---,0.00,VWS V14.01,2013-07-14 23:05:00,
2013-07-14 19:10:00,79.2,34.7,30.24,WNW,285,3.1,3.6,20,0.00,,---,0.00,VWS V14.01,2013-07-14 23:10:00,
2013-07-14 19:15:00,78.4,35.3,30.24,NW,305,3.1,3.1,21,0.00,,---,0.00,VWS V14.01,2013-07-14 23:15:00,
2013-07-14 19:20:00,77.7,34.7,30.24,WNW,303,0.0,0.0,21,0.00,,---,0.00,VWS V14.01,2013-07-14 23:20:00,
2013-07-14 19:25:00,77.5,34.6,30.24,NNW,335,0.0,0.0,21,0.00,,---,0.00,VWS V14.01,2013-07-14 23:25:00,
2013-07-14 19:30:00,77.2,35.4,30.24,NW,326,0.0,0.0,22,0.00,,---,0.00,VWS V14.01,2013-07-14 23:30:00,
2013-07-14 19:35:00,76.6,36.1,30.24,NW,313,0.0,0.0,23,0.00,,---,0.00,VWS V14.01,2013-07-14 23:35:00,
2013-07-14 19:40:00,76.3,36.9,30.24,WNW,287,0.0,2.7,24,0.00,,---,0.00,VWS V14.01,2013-07-14 23:40:00,
2013-07-14 19:45:00,75.9,37.6,30.27,WNW,287,0.0,0.0,25,0.00,,---,0.00,VWS V14.01,2013-07-14 23:45:00,
2013-07-14 19:50:00,75.2,40.8,30.27,WNW,287,0.0,0.0,29,0.00,,---,0.00,VWS V14.01,2013-07-14 23:50:00,
2013-07-14 19:55:00,74.5,41.9,30.27,WNW,288,0.0,0.0,31,0.00,,---,0.00,VWS V14.01,2013-07-14 23:55:00,
2013-07-14 20:00:00,74.3,42.6,30.27,WNW,288,0.0,0.0,32,0.00,,---,0.00,VWS V14.01,2013-07-15 00:00:00,
2013-07-14 20:05:00,73.9,43.0,30.27,WNW,288,0.0,0.0,33,0.00,,---,0.00,VWS V14.01,2013-07-15 00:05:00,
2013-07-14 20:10:00,73.4,43.3,30.27,North,0,0.0,0.0,34,0.00,,---,0.00,VWS V14.01,2013-07-15 00:10:00,
2013-07-14 20:15:00,73.0,44.5,30.27,North,357,0.0,0.0,36,0.00,,---,0.00,VWS V14.01,2013-07-15 00:15:00,
2013-07-14 20:20:00,72.7,44.2,30.27,North,0,0.0,0.0,36,0.00,,---,0.00,VWS V14.01,2013-07-15 00:20:00,
2013-07-14 20:25:00,72.5,45.5,30.27,North,0,0.0,0.0,38,0.00,,---,0.00,VWS V14.01,2013-07-15 00:25:00,
2013-07-14 20:30:00,72.1,46.5,30.27,North,0,0.0,0.0,40,0.00,,---,0.00,VWS V14.01,2013-07-15 00:30:00,
2013-07-14 20:35:00,71.6,46.0,30.27,North,0,0.0,0.0,40,0.00,,---,0.00,VWS V14.01,2013-07-15 00:35:00,
2013-07-14 20:40:00,71.4,46.5,30.27,North,0,0.0,0.0,41,0.00,,---,0.00,VWS V14.01,2013-07-15 00:40:00,
2013-07-14 20:45:00,71.1,46.8,30.27,North,0,0.0,0.0,42,0.00,,---,0.00,VWS V14.01,2013-07-15 00:45:00,
2013-07-14 20:50:00,70.7,46.5,30.27,North,0,0.0,0.0,42,0.00,,---,0.00,VWS V14.01,2013-07-15 00:50:00,
2013-07-14 20:55:00,70.5,46.3,30.27,North,0,0.0,0.0,42,0.00,,---,0.00,VWS V14.01,2013-07-15 00:55:00,
2013-07-14 21:00:00,70.3,46.8,30.27,North,0,0.0,0.0,43,0.00,,---,0.00,VWS V14.01,2013-07-15 01:00:00,
2013-07-14 21:05:00,70.3,46.8,30.27,North,0,0.0,0.0,43,0.00,,---,0.00,VWS V14.01,2013-07-15 01:05:00,
2013-07-14 21:10:00,70.2,46.6,30.27,North,0,0.0,0.0,43,0.00,,---,0.00,VWS V14.01,2013-07-15 01:10:00,
2013-07-14 21:15:00,70.0,47.1,30.27,North,0,0.0,0.0,44,0.00,,---,0.00,VWS V14.01,2013-07-15 01:15:00,
2013-07-14 21:20:00,70.0,47.1,30.27,North,0,0.0,0.0,44,0.00,,---,0.00,VWS V14.01,2013-07-15 01:20:00,
2013-07-14 21:25:00,70.0,47.7,30.27,North,0,0.0,0.0,45,0.00,,---,0.00,VWS V14.01,2013-07-15 01:25:00,
2013-07-14 21:30:00,70.0,48.3,30.27,North,0,0.0,0.0,46,0.00,,---,0.00,VWS V14.01,2013-07-15 01:30:00,
2013-07-14 21:35:00,70.0,48.3,30.27,North,0,0.0,0.0,46,0.00,,---,0.00,VWS V14.01,2013-07-15 01:35:00,
2013-07-14 21:40:00,70.0,48.3,30.27,North,0,0.0,0.0,46,0.00,,---,0.00,VWS V14.01,2013-07-15 01:40:00,
2013-07-14 21:45:00,70.0,48.8,30.27,North,0,0.0,0.0,47,0.00,,---,0.00,VWS V14.01,2013-07-15 01:45:00,
2013-07-14 21:50:00,70.0,48.8,30.27,North,0,0.0,0.0,47,0.00,,---,0.00,VWS V14.01,2013-07-15 01:50:00,
2013-07-14 21:55:00,70.2,49.6,30.27,North,0,0.0,0.0,48,0.00,,---,0.00,VWS V14.01,2013-07-15 01:55:00,
2013-07-14 22:00:00,70.5,50.5,30.27,North,0,0.0,0.0,49,0.00,,---,0.00,VWS V14.01,2013-07-15 02:00:00,
2013-07-14 22:05:00,70.7,50.6,30.27,North,0,0.0,0.0,49,0.00,,---,0.00,VWS V14.01,2013-07-15 02:05:00,
2013-07-14 22:10:00,70.9,50.8,30.27,North,0,0.0,0.0,49,0.00,,---,0.00,VWS V14.01,2013-07-15 02:10:00,
2013-07-14 22:15:00,70.9,50.8,30.30,North,0,0.0,0.0,49,0.00,,---,0.00,VWS V14.01,2013-07-15 02:15:00,
2013-07-14 22:20:00,70.9,50.2,30.30,North,357,0.0,0.0,48,0.00,,---,0.00,VWS V14.01,2013-07-15 02:20:00,
2013-07-14 22:25:00,70.7,50.1,30.30,North,0,0.0,0.0,48,0.00,,---,0.00,VWS V14.01,2013-07-15 02:25:00,
2013-07-14 22:30:00,70.7,50.6,30.30,North,357,0.0,0.0,49,0.00,,---,0.00,VWS V14.01,2013-07-15 02:30:00,
2013-07-14 22:35:00,70.9,50.8,30.30,NNE,16,0.0,0.0,49,0.00,,---,0.00,VWS V14.01,2013-07-15 02:35:00,
2013-07-14 22:40:00,71.1,51.0,30.30,North,9,0.0,3.6,49,0.00,,---,0.00,VWS V14.01,2013-07-15 02:40:00,
2013-07-14 22:45:00,71.2,50.6,30.30,North,9,0.0,0.0,48,0.00,,---,0.00,VWS V14.01,2013-07-15 02:45:00,
2013-07-14 22:50:00,71.2,50.6,30.30,North,9,0.0,0.0,48,0.00,,---,0.00,VWS V14.01,2013-07-15 02:50:00,
2013-07-14 22:55:00,71.2,51.1,30.30,NNE,22,0.0,0.0,49,0.00,,---,0.00,VWS V14.01,2013-07-15 02:55:00,
2013-07-14 23:00:00,71.2,51.7,30.30,NW,319,2.7,3.1,50,0.00,,---,0.00,VWS V14.01,2013-07-15 03:00:00,
2013-07-14 23:05:00,71.2,51.1,30.30,North,357,2.7,3.1,49,0.00,,---,0.00,VWS V14.01,2013-07-15 03:05:00,
2013-07-14 23:10:00,71.4,51.3,30.30,ENE,65,0.0,0.0,49,0.00,,---,0.00,VWS V14.01,2013-07-15 03:10:00,
2013-07-14 23:15:00,71.4,51.3,30.30,NNE,18,0.0,2.2,49,0.00,,---,0.00,VWS V14.01,2013-07-15 03:15:00,
2013-07-14 23:20:00,71.4,51.3,30.30,NNE,18,0.0,0.0,49,0.00,,---,0.00,VWS V14.01,2013-07-15 03:20:00,
2013-07-14 23:25:00,71.1,51.0,30.30,NNE,18,0.0,0.0,49,0.00,,---,0.00,VWS V14.01,2013-07-15 03:25:00,
2013-07-14 23:30:00,70.9,50.8,30.30,NNE,18,0.0,0.0,49,0.00,,---,0.00,VWS V14.01,2013-07-15 03:30:00,
2013-07-14 23:35:00,70.7,50.6,30.30,NNE,18,0.0,0.0,49,0.00,,---,0.00,VWS V14.01,2013-07-15 03:35:00,
2013-07-14 23:40:00,70.7,51.2,30.30,NNE,18,0.0,0.0,50,0.00,,---,0.00,VWS V14.01,2013-07-15 03:40:00,
2013-07-14 23:45:00,70.5,51.0,30.30,NNE,18,0.0,0.0,50,0.00,,---,0.00,VWS V14.01,2013-07-15 03:45:00,
2013-07-14 23:50:00,70.3,51.4,30.30,NNE,18,0.0,0.0,51,0.00,,---,0.00,VWS V14.01,2013-07-15 03:50:00,
2013-07-14 23:55:00,70.3,51.4,30.30,NNE,18,0.0,0.0,51,0.00,,---,0.00,VWS V14.01,2013-07-15 03:55:00,